#timestamp,LO_Frequency,Hit,StdDev 
1661115615.4,286047000.6,N
1661115635.2,286046999.3,P
1661115655.1,286046999.4,N
1661115656.0,286046999.4,N
1661115675.8,286046999.2,N
1661115695.6,286046999.2,N
1661115715.5,286046999.2,N
1661115735.3,286046999.6,N
1661115755.2,286046996.9,Y
1661115775.9,286046999.4,P
1661115795.7,286046996.5,P
1661115815.6,286046999.3,N
1661115835.4,286046996.5,N
1661115855.2,286046997.2,N
1661115875.1,286046997.1,N
1661115876.0,286046997.1,N
1661115895.8,286046996.8,N
1661115915.7,286046999.6,N
1661115935.5,286046999.4,N
1661115955.3,286046997.0,N
1661115975.2,286046997.1,N
1661115995.0,286046999.1,N
1661115995.9,286046999.1,N
1661116015.8,286046999.5,N
1661116035.6,286046999.6,N
1661116055.4,286046996.6,N
1661116075.3,286046996.5,N
1661116095.1,286046999.6,N
1661116115.8,286046999.4,N
1661116135.7,286046996.9,N
1661116155.5,286046999.1,N
1661116175.4,286046996.5,N
1661116195.2,286046999.5,N
1661116215.0,286046996.7,N
1661116215.9,286046996.7,N
1661116235.8,286046996.8,N
1661116255.6,286046997.5,N
1661116275.4,286046997.9,N
1661116295.3,286046997.7,N
1661116315.1,286046997.5,N
1661116335.9,286046997.6,N
1661116355.7,286046997.6,N
1661116375.5,286046997.6,N
1661116395.4,286046995.3,Y
1661116415.2,286046999.0,P
1661116435.1,286046999.3,N
1661116436.0,286046999.3,N
1661116455.8,286046999.0,N
1661116475.6,286046999.2,N
1661116495.5,286046999.6,N
1661116515.3,286046999.5,N
1661116535.1,286046996.6,Y
1661116555.9,286046998.4,P
1661116575.7,286047000.7,N
1661116595.6,286046998.3,N
1661116615.4,286046998.2,N
1661116635.2,286046998.6,N
1661116655.1,286046998.5,N
1661116656.0,286046998.5,N
1661116675.8,286046998.8,N
1661116695.6,286046998.5,N
1661116715.5,286046998.6,N
1661116735.3,286046998.7,N
1661116755.2,286046998.6,N
1661116775.9,286046999.1,N
1661116795.7,286046998.3,N
1661116815.6,286046998.7,N
1661116835.4,286046999.3,N
1661116855.3,286046998.6,N
1661116875.1,286046999.3,N
1661116876.0,286046999.3,N
1661116895.8,286046999.6,N
1661116915.7,286046999.0,N
1661116935.5,286046998.7,N
1661116955.3,286046998.8,N
1661116975.2,286046998.3,Y
1661116995.0,286047000.6,P
1661116995.9,286047000.6,N
1661117015.8,286046999.9,N
1661117035.6,286047000.6,N
1661117055.4,286047000.2,N
1661117075.3,286047002.8,Y
1661117095.1,286047002.8,P
1661117115.8,286047002.3,N
1661117135.7,286046999.9,N
1661117155.5,286047002.7,N
1661117175.4,286047002.7,N
1661117195.2,286047002.5,N
1661117215.0,286047002.3,N
1661117215.9,286047002.3,N
1661117235.8,286047001.6,N
1661117255.6,286047002.2,N
1661117275.5,286047001.6,N
1661117295.3,286047001.6,N
1661117315.1,286047001.5,N
1661117335.9,286047003.9,Y
1661117355.7,286047002.5,P
1661117375.5,286047002.5,P
1661117395.4,286047002.5,P
1661117415.2,286047002.2,Y
1661117435.1,286047000.7,P
1661117436.0,286047000.7,N
1661117455.8,286046998.5,N
1661117475.6,286046998.3,N
1661117495.5,286046999.3,N
1661117515.3,286046998.6,N
1661117535.2,286046998.7,N
1661117555.9,286046998.5,N
1661117575.7,286046996.6,N
1661117595.6,286046998.8,N
1661117615.4,286046999.0,N
1661117635.2,286046996.9,N
1661117655.1,286046996.9,N
1661117656.0,286046996.9,N
1661117675.8,286046999.5,N
1661117695.7,286046998.4,N
1661117715.5,286046998.1,N
1661117735.3,286046998.7,N
1661117755.2,286046998.2,N
1661117775.0,286046998.3,N
1661117775.9,286046998.3,N
1661117795.7,286047001.1,N
1661117815.6,286047000.8,N
1661117835.4,286047001.1,N
1661117855.3,286046998.5,N
1661117875.1,286046999.3,N
1661117876.0,286046999.3,N
1661117895.8,286046998.3,N
1661117915.7,286046998.9,N
1661117935.5,286046998.4,N
1661117955.3,286046998.2,N
1661117975.2,286047000.3,N
1661117995.0,286047000.4,N
1661117995.9,286047000.4,N
1661118015.8,286047000.6,N
1661118035.6,286047001.0,N
1661118055.4,286047000.7,N
1661118075.3,286047000.6,N
1661118095.1,286047000.3,N
1661118115.8,286046999.9,N
1661118135.7,286046999.8,N
1661118155.5,286047000.3,N
1661118175.4,286047000.5,N
1661118195.2,286046999.8,N
1661118215.0,286047002.6,N
1661118215.9,286047002.6,N
1661118235.8,286047002.5,N
1661118255.6,286047002.2,N
1661118275.5,286047001.8,N
1661118295.3,286047001.9,N
1661118315.1,286047001.7,N
1661118335.9,286047001.4,N
1661118355.7,286047002.0,N
1661118375.5,286047001.9,N
1661118395.4,286046999.7,N
1661118415.2,286047000.2,N
1661118435.1,286047002.8,N
1661118436.0,286047002.8,N
1661118455.8,286047002.5,N
1661118475.6,286046999.7,N
1661118495.5,286047002.3,N
1661118515.3,286047002.4,N
1661118535.1,286047001.9,N
1661118555.9,286047002.1,N
1661118575.7,286047002.6,N
1661118595.6,286047001.9,N
1661118615.4,286047002.4,N
1661118635.2,286047002.4,N
1661118655.1,286047002.3,N
1661118656.0,286047002.3,N
1661118675.8,286047002.2,N
1661118695.7,286047002.3,N
1661118715.5,286047001.4,N
1661118735.3,286047002.2,N
1661118755.2,286047002.3,N
1661118775.0,286047002.4,Y
1661118775.9,286047002.4,P
1661118795.8,286047001.1,P
1661118815.6,286047001.2,N
1661118835.4,286046998.5,N
1661118855.3,286047001.0,N
1661118875.1,286047000.5,N
1661118895.9,286047000.8,N
1661118915.7,286047000.6,N
1661118935.5,286047000.5,N
1661118955.4,286047000.1,N
1661118975.2,286047002.4,N
1661118995.1,286046999.9,N
1661118996.0,286046999.9,N
1661119015.8,286047002.4,N
1661119035.6,286047002.6,N
1661119055.5,286047002.4,N
1661119075.3,286047002.6,N
1661119095.2,286047002.8,N
1661119115.9,286047002.6,N
1661119135.7,286047002.7,N
1661119155.6,286047002.3,N
1661119175.4,286046999.9,N
1661119195.2,286046999.9,N
